Owosso, MI

11:33 PM EDT on March 29, 2017 (GMT -0400)
Owosso

Weather History for KRNP - February, 2014

Change the Weather History Date:

Thursday, February 13, 2014

  Actual Average (KFNT) Record (KFNT)
Temperature  
Mean Temperature 24 °F -  
Max Temperature 31 °F 31 °F 57 °F (1938)
Min Temperature 18 °F 16 °F -8 °F (2015)
Degree Days  
Heating Degree Days 40    
Moisture  
Dew Point 9 °F    
Average Humidity 54    
Maximum Humidity 70    
Minimum Humidity 31    
Precipitation  
Precipitation 0.00 in - - ()
Sea Level Pressure  
Sea Level Pressure 29.80 in    
Wind  
Wind Speed 4 mph (SSE)    
Max Wind Speed 14 mph    
Max Gust Speed 21 mph    
Visibility 10 miles    
Events Snow    
Averages and records for this station are not official NWS values.
T = Trace of Precipitation, MM = Missing Value Source: NWS Daily Summary

Daily Weather History Graph

Daily Weather History Graph

Search for Another Location

Airport or City:

Trip Planner

Search our weather history database for the weather conditions in past years. The results will help you decide how hot, cold, wet, or windy it might be!

Date:

Astronomy

Feb. 13, 2014 Rise Set
Actual Time 7:36 AM EST 6:05 PM EST
Civil Twilight 7:07 AM EST 6:34 PM EST
Nautical Twilight 6:34 AM EST 7:07 PM EST
Astronomical Twilight 6:01 AM EST 7:40 PM EST
Moon 5:12 PM EST (2/13) 6:29 AM EST (2/13)
Length of Visible Light 11h 27m
Length of Day
10h 28m
Waxing Gibbous, 98% of the Moon is Illuminated
Feb 13
Waxing Gibbous
Feb 14
Full
Feb 22
Last Quarter
Mar 1
New
Mar 8
First Quarter

Hourly Weather History & Observations

Time (EST) Temp. Windchill Dew Point Humidity Pressure Visibility Wind Dir Wind Speed Gust Speed Precip Events Conditions
12:15 AM 18.9 °F 12.1 °F 7.3 °F 61% 30.04 in 10.0 mi SSE 4.6 mph - N/A   Overcast
12:35 AM 18.9 °F 12.1 °F 7.5 °F 61% 30.03 in 10.0 mi SSE 4.6 mph - N/A   Overcast
12:54 AM 19.0 °F - 7.5 °F 61% 30.04 in 10.0 mi Calm Calm - N/A   Overcast
1:15 AM 19.2 °F - 7.7 °F 61% 30.04 in 10.0 mi Calm Calm - N/A   Overcast
1:35 AM 19.2 °F - 7.5 °F 60% 30.03 in 10.0 mi Calm Calm - N/A   Overcast
1:54 AM 19.4 °F - 7.5 °F 60% 30.04 in 10.0 mi Calm Calm - N/A   Overcast
2:15 AM 19.4 °F - 7.5 °F 60% 30.04 in 10.0 mi Calm Calm - N/A   Overcast
2:35 AM 19.4 °F - 7.7 °F 60% 30.04 in 10.0 mi Calm Calm - N/A   Overcast
2:54 AM 19.4 °F 14.3 °F 7.7 °F 60% 30.03 in 10.0 mi SSE 3.5 mph - N/A   Overcast
3:15 AM 19.2 °F 12.5 °F 7.7 °F 61% 30.03 in 10.0 mi SE 4.6 mph - N/A   Overcast
3:35 AM 18.9 °F 9.8 °F 7.2 °F 60% 30.02 in 10.0 mi SSE 6.9 mph - N/A   Overcast
3:54 AM 18.7 °F 9.5 °F 7.3 °F 61% 30.01 in 10.0 mi South 6.9 mph - N/A   Overcast
4:15 AM 18.5 °F - 7.7 °F 63% 30.01 in 10.0 mi Calm Calm - N/A   Overcast
4:34 AM 18.5 °F - 7.7 °F 63% 30.00 in 10.0 mi Calm Calm - N/A   Overcast
4:55 AM 18.5 °F - 7.7 °F 63% 30.00 in 10.0 mi Calm Calm - N/A   Overcast
5:15 AM 18.5 °F - 8.1 °F 64% 29.99 in 10.0 mi Calm Calm - N/A   Overcast
5:34 AM 18.5 °F - 8.1 °F 64% 29.98 in 10.0 mi Calm Calm - N/A   Overcast
5:55 AM 18.5 °F 13.3 °F 8.2 °F 64% 29.97 in 10.0 mi SSE 3.5 mph - N/A   Overcast
6:15 AM 18.7 °F - 8.4 °F 64% 29.96 in 10.0 mi Calm Calm - N/A   Overcast
6:34 AM 18.9 °F - 8.6 °F 64% 29.96 in 10.0 mi Calm Calm - N/A   Overcast
6:55 AM 18.9 °F - 9.1 °F 66% 29.96 in 10.0 mi Calm Calm - N/A   Overcast
7:15 AM 18.9 °F 13.7 °F 9.5 °F 67% 29.96 in 10.0 mi East 3.5 mph - N/A   Overcast
7:34 AM 18.9 °F 13.7 °F 9.7 °F 67% 29.96 in 10.0 mi East 3.5 mph - N/A   Overcast
7:55 AM 18.5 °F - 9.7 °F 68% 29.95 in 10.0 mi Calm Calm - N/A   Overcast
8:15 AM 19.0 °F - 9.3 °F 66% 29.94 in 10.0 mi Calm Calm - N/A   Overcast
8:34 AM 19.2 °F - 9.5 °F 66% 29.94 in 10.0 mi Calm Calm - N/A   Overcast
8:55 AM 18.9 °F - 9.5 °F 67% 29.93 in 10.0 mi Calm Calm - N/A   Mostly Cloudy
9:14 AM 19.2 °F 14.1 °F 9.3 °F 65% 29.92 in 10.0 mi SE 3.5 mph - N/A   Scattered Clouds
9:35 AM 20.1 °F 12.3 °F 9.1 °F 62% 29.91 in 10.0 mi ESE 5.8 mph - N/A   Clear
9:55 AM 20.8 °F 14.4 °F 8.8 °F 60% 29.91 in 10.0 mi SE 4.6 mph - N/A   Clear
10:14 AM 21.9 °F 13.4 °F 7.7 °F 54% 29.90 in 10.0 mi SE 6.9 mph - N/A   Clear
10:35 AM 22.8 °F 13.6 °F 7.5 °F 52% 29.89 in 10.0 mi ESE 8.1 mph - N/A   Clear
10:54 AM 23.7 °F 14.7 °F 7.2 °F 49% 29.88 in 10.0 mi SE 8.1 mph - N/A   Clear
11:15 AM 24.6 °F 16.7 °F 6.8 °F 47% 29.87 in 10.0 mi ESE 6.9 mph - N/A   Clear
11:35 AM 25.3 °F 18.5 °F 7.7 °F 47% 29.87 in 10.0 mi SE 5.8 mph - N/A   Clear
11:54 AM 25.7 °F 18.0 °F 7.7 °F 47% 29.85 in 10.0 mi SSE 6.9 mph - N/A   Clear
12:15 PM 27.1 °F 21.8 °F 6.3 °F 41% 29.84 in 10.0 mi South 4.6 mph - N/A   Clear
12:35 PM 27.7 °F 17.6 °F 5.4 °F 39% 29.80 in 10.0 mi SE 11.5 mph - N/A   Clear
12:54 PM 28.4 °F 21.2 °F 6.6 °F 40% 29.79 in 10.0 mi SSE 6.9 mph - N/A   Clear
1:15 PM 29.3 °F 22.3 °F 6.1 °F 37% 29.78 in 10.0 mi South 6.9 mph - N/A   Clear
1:34 PM 29.5 °F 22.5 °F 4.6 °F 35% 29.76 in 10.0 mi SSE 6.9 mph - N/A   Clear
1:55 PM 30.6 °F 22.4 °F 3.6 °F 32% 29.75 in 10.0 mi SSE 9.2 mph - N/A   Clear
2:34 PM 30.4 °F 24.5 °F 5.9 °F 36% 29.73 in 10.0 mi South 5.8 mph - N/A   Clear
2:55 PM 31.1 °F 23.7 °F 5.2 °F 33% 29.71 in 10.0 mi South 8.1 mph - N/A   Clear
3:15 PM 31.5 °F 24.9 °F 4.1 °F 31% 29.70 in 10.0 mi SSE 6.9 mph - N/A   Clear
3:35 PM 31.8 °F 26.2 °F 4.8 °F 32% 29.69 in 10.0 mi SSE 5.8 mph - N/A   Clear
3:55 PM 31.8 °F 25.4 °F 5.0 °F 32% 29.69 in 10.0 mi South 6.9 mph - N/A   Clear
4:14 PM 31.5 °F 26.8 °F 6.4 °F 35% 29.68 in 10.0 mi South 4.6 mph - N/A   Clear
4:35 PM 30.9 °F 26.2 °F 7.2 °F 37% 29.67 in 10.0 mi South 4.6 mph - N/A   Mostly Cloudy
4:55 PM 31.1 °F 27.7 °F 7.0 °F 36% 29.66 in 10.0 mi SSE 3.5 mph - N/A   Overcast
5:15 PM 30.9 °F 26.2 °F 6.3 °F 35% 29.64 in 10.0 mi SSE 4.6 mph - N/A   Mostly Cloudy
5:35 PM 30.7 °F 24.9 °F 4.3 °F 33% 29.63 in 10.0 mi SSE 5.8 mph - N/A   Mostly Cloudy
5:54 PM 30.2 °F 20.8 °F 4.1 °F 33% 29.62 in 10.0 mi SSE 11.5 mph - N/A   Overcast
6:15 PM 29.8 °F 21.5 °F 3.7 °F 33% 29.62 in 10.0 mi South 9.2 mph - N/A   Overcast
6:35 PM 29.3 °F 21.5 °F 4.1 °F 34% 29.61 in 10.0 mi SSE 8.1 mph - N/A   Overcast
6:54 PM 28.8 °F 20.9 °F 5.0 °F 36% 29.61 in 10.0 mi SSE 8.1 mph - N/A   Overcast
7:15 PM 28.2 °F 21.0 °F 6.6 °F 40% 29.61 in 10.0 mi South 6.9 mph - N/A   Overcast
7:35 PM 25.5 °F 13.8 °F 14.0 °F 62% 29.62 in 3.0 mi South 13.8 mph 20.7 mph N/A Snow Light Snow
7:54 PM 24.4 °F 17.5 °F 16.0 °F 70% 29.60 in 7.0 mi South 5.8 mph - N/A Snow Light Snow
8:15 PM 24.8 °F 16.1 °F 14.5 °F 65% 29.58 in 10.0 mi SE 8.1 mph - N/A   Overcast
8:34 PM 25.2 °F 15.1 °F 14.0 °F 63% 29.57 in 10.0 mi SSE 10.4 mph - N/A   Overcast
8:55 PM 24.8 °F 15.3 °F 14.7 °F 66% 29.56 in 10.0 mi SSE 9.2 mph - N/A   Overcast
9:15 PM 24.4 °F 14.2 °F 14.4 °F 66% 29.56 in 10.0 mi SSE 10.4 mph - N/A   Overcast
9:35 PM 24.4 °F 14.9 °F 14.2 °F 65% 29.55 in 10.0 mi SE 9.2 mph - N/A   Overcast
9:55 PM 24.3 °F 16.3 °F 14.0 °F 65% 29.54 in 10.0 mi SE 6.9 mph - N/A   Overcast
10:14 PM 23.7 °F 14.7 °F 14.0 °F 66% 29.53 in 10.0 mi SSE 8.1 mph - N/A   Overcast
10:35 PM 23.4 °F 13.5 °F 14.0 °F 67% 29.52 in 10.0 mi SSE 9.2 mph - N/A   Overcast
10:55 PM 23.2 °F 13.3 °F 13.8 °F 67% 29.51 in 10.0 mi SE 9.2 mph - N/A   Overcast
11:14 PM 23.0 °F 13.1 °F 14.0 °F 68% 29.50 in 10.0 mi SSE 9.2 mph - N/A   Overcast
11:35 PM 23.0 °F 14.7 °F 14.0 °F 68% 29.48 in 10.0 mi SSE 6.9 mph - N/A   Overcast
11:55 PM 23.0 °F 15.8 °F 13.8 °F 68% 29.47 in 10.0 mi SSE 5.8 mph - N/A   Overcast